This demonstration page uses our WeatherBlox Daily Observations layout. Learn more.

Left ArrowRight Arrow

39.51506, -84.39828

Hourly Observations for June 30, 2020

Temp ( °F °C ) Dew Point ( °F °C ) Humidity (%) Winds ( mph kmh ) Pressure ( in mb ) Visibility ( mi km ) Precip ( " mm )
12:15 am 00:15 Clear 76 24.6 71 21.4 82 82 Calm 29.94 1014 10 16.0934 0 0
12:35 am 00:35 Clear 76 24.6 70 21.3 82 82 Calm 29.94 1014 10 16.0934 0 0
12:55 am 00:55 Clear 74 23.5 72 22 91 91 Calm 29.94 1014 10 16.0934 0 0
1:15 am 01:15 Clear 73 22.9 71 21.7 93 93 Calm 29.93 1013 10 16.0934 0 0
1:35 am 01:35 Clear 72 22.3 71 21.6 96 96 Calm 29.94 1014 10 16.0934 0 0
1:55 am 01:55 Clear 72 22.4 71 21.6 95 95 ENE 5 7 29.94 1014 10 16.0934 0 0
2:15 am 02:15 Clear 72 22.4 71 21.8 96 96 NE 3 6 29.94 1014 10 16.0934 0 0
2:35 am 02:35 Partly Cloudy 72 22.4 71 21.8 96 96 Calm 29.95 1014 10 16.0934 0 0
2:55 am 02:55 Partly Cloudy 72 22.1 71 21.8 98 98 Calm 29.95 1014 10 16.0934 0 0
3:15 am 03:15 Cloudy 73 23 71 21.4 91 91 SSE 5 7 29.95 1014 10 16.0934 0 0
3:35 am 03:35 Partly Cloudy 74 23.4 70 21.3 88 88 Calm 29.95 1014 10 16.0934 0 0
3:55 am 03:55 Mostly Cloudy 74 23.2 71 21.4 90 90 Calm 29.94 1014 10 16.0934 0 0
4:15 am 04:15 Cloudy 73 22.9 71 21.9 94 94 Calm 29.94 1014 10 16.0934 0 0
4:35 am 04:35 Cloudy with Light Rain 73 22.8 72 22.1 96 96 SSW 7 11 29.94 1014 10 16.0934 0 0
4:55 am 04:55 Cloudy 74 23.3 73 22.5 95 95 SW 7 11 29.95 1014 10 16.0934 0 0
5:15 am 05:15 Mostly Cloudy 73 22.8 70 21.2 91 91 SW 6 9 29.95 1014 10 16.0934 0 0
5:35 am 05:35 Cloudy 72 22.3 69 20.6 90 90 WSW 8 13 29.95 1014 10 16.0934 0 0
5:55 am 05:55 Partly Cloudy 72 22.3 68 20.2 88 88 WSW 3 6 29.95 1014 10 16.0934 0 0
6:15 am 06:15 Partly Cloudy 71 21.9 68 20.1 90 90 Calm 29.95 1014 10 16.0934 0 0
6:35 am 06:35 Sunny 71 21.9 68 20.1 90 90 Calm 29.94 1014 10 16.0934 0 0
6:55 am 06:55 Sunny 71 21.7 69 20.4 92 92 Calm 29.94 1014 10 16.0934 0 0
7:15 am 07:15 Sunny 71 21.6 69 20.5 93 93 Calm 29.95 1014 10 16.0934 0 0
7:35 am 07:35 Sunny 72 22.3 69 20.7 91 91 Calm 29.95 1014 10 16.0934 0 0
7:55 am 07:55 Sunny 73 23 70 21.1 89 89 Calm 29.94 1014 10 16.0934 0 0
8:15 am 08:15 Sunny 75 23.8 71 21.4 86 86 NE 3 6 29.95 1014 10 16.0934 0 0
8:35 am 08:35 Sunny 76 24.2 70 21.3 84 84 Calm 29.94 1014 10 16.0934 0 0
8:55 am 08:55 Sunny 77 24.8 70 21.2 80 80 Calm 29.94 1014 10 16.0934 0 0
9:15 am 09:15 Sunny 78 25.4 71 21.4 79 79 N 3 6 29.94 1014 10 16.0934 0 0
9:35 am 09:35 Sunny 79 26.1 71 21.7 77 77 NNW 7 11 29.94 1014 10 16.0934 0 0
9:55 am 09:55 Mostly Cloudy 80 26.4 71 21.9 76 76 Calm 29.95 1014 10 16.0934 0 0
10:15 am 10:15 Cloudy 80 26.7 72 22.3 77 77 Calm 29.94 1014 10 16.0934 0 0
10:35 am 10:35 Partly Cloudy 82 27.5 73 22.6 75 75 Calm 29.94 1014 10 16.0934 0 0
10:55 am 10:55 Sunny 82 27.9 72 22.4 72 72 Calm 29.94 1014 10 16.0934 0 0
11:15 am 11:15 Sunny 83 28.3 72 22.4 70 70 Calm 29.94 1014 10 16.0934 0 0
11:35 am 11:35 Partly Cloudy 83 28.6 73 22.5 70 70 SW 3 6 29.94 1014 10 16.0934 0 0
11:55 am 11:55 Mostly Cloudy 83 28.6 73 22.5 70 70 Calm 29.94 1014 10 16.0934 0 0
12:15 pm 12:15 Partly Cloudy 84 28.7 73 22.6 70 70 Calm 29.92 1013 10 16.0934 0 0
12:35 pm 12:35 Mostly Cloudy with Nearby Thunderstorms 84 28.8 73 23 71 71 Calm 29.92 1013 10 16.0934 0 0
12:55 pm 12:55 Cloudy with Thunderstorms 84 28.7 73 22.9 71 71 SSW 3 6 29.93 1014 10 16.0934 0 0
1:15 pm 13:15 Cloudy with Nearby Thunderstorms 77 25.2 67 19.7 72 72 SE 16 26 29.94 1014 10 16.0934 0 0
1:35 pm 13:35 Mostly Cloudy with Rain 73 22.9 71 21.7 93 93 S 6 9 29.95 1014 2.5 4.02335 0.01 0.254
1:55 pm 13:55 Cloudy with Light Rain 74 23.1 71 21.6 91 91 W 5 7 29.96 1014 7 11.26538 0.02 0.508
2:15 pm 14:15 Cloudy with Rain 74 23.3 72 22 92 92 SW 7 11 29.95 1014 7 11.26538 0 0
2:35 pm 14:35 Cloudy with Light Rain 74 23.6 72 22.4 93 93 WSW 6 9 29.93 1013 10 16.0934 0.01 0.254
2:55 pm 14:55 Mostly Cloudy with Thunderstorms 75 23.9 73 22.9 94 94 SSW 3 6 29.93 1013 10 16.0934 0.02 0.508
3:15 pm 15:15 Cloudy 75 23.7 73 22.5 93 93 NNW 6 9 29.93 1013 10 16.0934 0 0
3:35 pm 15:35 Mostly Cloudy with Light Rain 73 22.9 70 20.9 89 89 NW 8 13 29.92 1013 10 16.0934 0.01 0.254
3:55 pm 15:55 Partly Cloudy 73 22.6 69 20.6 89 89 Calm 29.92 1013 10 16.0934 0.02 0.508
4:15 pm 16:15 Mostly Cloudy 73 22.7 70 21.2 91 91 Calm 29.92 1013 10 16.0934 0.01 0.254
4:35 pm 16:35 Sunny 73 22.5 70 21.2 92 92 Calm 29.92 1013 10 16.0934 0.02 0.508
4:55 pm 16:55 Sunny with Nearby Thunderstorms 74 23.2 71 21.6 91 91 E 3 6 29.92 1013 10 16.0934 0.04 1.016
5:15 pm 17:15 Sunny 75 23.8 71 21.5 87 87 Calm 29.9 1012 10 16.0934 0.01 0.254
5:35 pm 17:35 Sunny 75 24.1 72 22.1 89 89 SW 3 6 29.91 1013 10 16.0934 0.02 0.508
5:55 pm 17:55 Sunny 75 24 71 21.6 87 87 Calm 29.9 1012 10 16.0934 0.03 0.762
6:15 pm 18:15 Sunny 76 24.2 72 22.1 88 88 Calm 29.88 1012 10 16.0934 0.01 0.254
6:35 pm 18:35 Sunny 76 24.2 72 22.3 89 89 Calm 29.88 1012 10 16.0934 0.03 0.762
6:55 pm 18:55 Sunny 76 24.2 72 22.3 89 89 Calm 29.88 1012 10 16.0934 0.04 1.016
7:15 pm 19:15 Sunny 76 24.6 72 22.1 86 86 Calm 29.88 1012 10 16.0934 0.01 0.254
7:35 pm 19:35 Sunny 76 24.3 72 22.2 88 88 Calm 29.88 1012 10 16.0934 0.02 0.508
7:55 pm 19:55 Sunny 75 24 72 22.2 90 90 Calm 29.89 1012 10 16.0934 0.03 0.762
8:15 pm 20:15 Sunny 75 23.7 72 22.1 91 91 Calm 29.9 1012 10 16.0934 0.01 0.254
8:35 pm 20:35 Sunny 73 23 72 22.4 96 96 Calm 29.9 1012 10 16.0934 0.02 0.508
8:55 pm 20:55 Sunny 73 22.5 72 22.4 99 99 Calm 29.9 1012 10 16.0934 0.03 0.762
9:15 pm 21:15 Clear 72 22.4 72 22.4 100 100 Calm 29.9 1012 10 16.0934 0 0
9:35 pm 21:35 Clear with Mist and Fog 72 22 72 22 100 100 Calm 29.9 1013 5 8.0467 0.01 0.254
9:55 pm 21:55 Clear 70 21 N/A N/A Calm 29.91 1013 7 11.26538 0.02 0.508
10:15 pm 22:15 Hazy 70 21 N/A N/A Calm 29.9 1013 5 8.0467 0 0
10:35 pm 22:35 Clear 70 21 N/A N/A Calm 29.91 1013 7 11.26538 0.01 0.254
10:55 pm 22:55 Hazy 70 21 N/A N/A Calm 29.91 1013 7 11.26538 0.01 0.254
11:15 pm 23:15 Hazy 68 20 N/A N/A Calm 29.91 1013 4 6.43736 0 0
11:35 pm 23:35 Hazy 68 20 N/A N/A Calm 29.91 1013 7 11.26538 0.01 0.254
11:55 pm 23:55 Clear 68 20 N/A N/A Calm 29.91 1013 7 11.26538 0.01 0.254

Powered by AerisWeather